CW8490 Weather Reports


Display with metric or nautical units.
time (UTC)temp
F
wind
direction
speed
MPH
gust
MPH
rain 1hr
in
rain 24hr
in
rain mn
in
humidity
%
barometer
mb
20260901031116 85 180 2.0 3.0 0.00 0.00 0.00 56 1013.3
20260901030116 86 180 3.0 5.0 0.00 0.00 0.00 55 1013.2
20260901025115 86 158 2.0 3.0 0.00 0.00 0.00 55 1013.3
20260901024116 86 180 3.0 5.0 0.00 0.00 0.00 55 1013.2
20260901023116 86 135 2.0 4.0 0.00 0.00 0.00 56 1013.1
20260901022116 86 135 1.0 2.0 0.00 0.00 0.00 56 1013.1
20260901021116 86 158 3.0 6.0 0.00 0.00 0.00 56 1012.8
20260901020115 86 0.0 0.0 0.00 0.00 0.00 57 1012.7
20260901015116 86 135 1.0 3.0 0.00 0.00 0.00 58 1012.7
20260901014116 86 135 1.0 2.0 0.00 0.00 0.00 60 1012.5
20260901013156 86 0.0 0.0 0.00 0.00 0.00 60 1012.5
20260901012116 86 0.0 0.0 0.00 0.00 0.00 61 1012.3
20260901011116 87 0.0 0.0 0.00 0.00 0.00 59 1012.2
20260901010116 88 0.0 0.0 0.00 0.00 0.00 58 1012.2
20260901005116 89 0.0 1.0 0.00 0.00 0.00 58 1012.1
20260901004116 90 0.0 0.0 0.00 0.00 0.00 56 1012.1
20260901003116 91 0.0 0.0 0.00 0.00 0.00 54 1012.1
20260901002156 93 0.0 0.0 0.00 0.00 0.00 54 1012.2
20260901001116 93 158 1.0 1.0 0.00 0.00 0.00 52 1012.1
20260901000116 94 0.0 0.0 0.00 0.00 0.00 53 1012.2
20260831235153 97 0.0 0.0 0.00 0.00 0.00 48 1012.2
20260831235005 97 0.0 0.0 0.00 0.00 0.00 48 1012.2
20260831234816 97 0.0 0.0 0.00 0.00 0.00 48 1012.2
20260831233816 97 203 1.0 1.0 0.00 0.00 0.00 46 1012.2
20260831232816 98 203 2.0 2.0 0.00 0.00 0.00 46 1012.2
20260831231936 98 180 3.0 4.0 0.00 0.00 0.00 44 1012.2
20260831230816 99 180 1.0 2.0 0.00 0.00 0.00 44 1012.2
20260831225816 99 203 2.0 4.0 0.00 0.00 0.00 43 1012.2
20260831224856 100 203 5.0 7.0 0.00 0.00 0.00 41 1012.2
20260831223816 100 225 1.0 4.0 0.00 0.00 0.00 43 1012.3
20260831222816 101 180 4.0 5.0 0.00 0.00 0.00 41 1012.2
20260831221817 101 203 2.0 4.0 0.00 0.00 0.00 43 1012.5
20260831220816 100 203 3.0 5.0 0.00 0.00 0.00 42 1012.4
20260831215816 100 225 4.0 7.0 0.00 0.00 0.00 41 1012.4
20260831214816 100 203 4.0 6.0 0.00 0.00 0.00 40 1012.5
20260831213816 100 203 3.0 5.0 0.00 0.00 0.00 42 1012.4
20260831212904 100 0.0 0.0 0.00 0.00 0.00 41 1012.4
20260831212715 100 0.0 0.0 0.00 0.00 0.00 41 1012.5
20260831212316 100 180 3.0 5.0 0.00 0.00 0.00 41 1012.5
20260831211316 100 180 3.0 5.0 0.00 0.00 0.00 41 1012.5
20260831210316 100 203 7.0 10.0 0.00 0.00 0.00 42 1012.5
20260831205336 100 248 2.0 6.0 0.00 0.00 0.00 42 1012.5
20260831204316 100 293 5.0 10.0 0.00 0.00 0.00 42 1012.6
20260831203336 100 203 7.0 10.0 0.00 0.00 0.00 41 1012.7
20260831202316 100 203 3.0 7.0 0.00 0.00 0.00 43 1012.7
20260831201316 99 225 5.0 9.0 0.00 0.00 0.00 42 1012.7
20260831200316 99 338 2.0 5.0 0.00 0.00 0.00 43 1012.6
20260831195917 100 270 4.0 6.0 0.00 0.00 0.00 44 1012.6
20260831195740 100 225 2.0 2.0 0.00 0.00 0.00 45 1012.6
20260831195658 99 0.0 0.0 0.00 0.00 0.00 42 1012.6
20260831195534 99 0.0 0.0 0.00 0.00 0.00 42 1012.6
20260831195419 99 0.0 0.0 0.00 0.00 0.00 42 1012.6
20260831195255 99 0.0 0.0 0.00 0.00 0.00 42 1012.6
20260831195120 99 203 6.0 8.0 0.00 0.00 0.00 42 1012.7
20260831194223 99 158 4.0 7.0 0.00 0.00 0.00 44 1012.8
20260831193918 99 180 6.0 9.0 0.00 0.00 0.00 44 1012.8
20260831193902 99 203 3.0 5.0 0.00 0.00 0.00 46 1012.9
20260831190817 98 270 3.0 6.0 0.00 0.00 0.00 44 1013.0
20260831185838 99 270 4.0 6.0 0.00 0.00 0.00 43 1013.2
20260831185237 99 225 7.0 11.0 0.00 0.00 0.00 43 1013.2
20260831184524 98 203 8.0 12.0 0.00 0.00 0.00 44 1013.3
20260831183710 99 0.0 0.0 0.00 0.00 0.00
20260831183608 99 0.0 0.0 0.00 0.00 0.00
20260831183339 99 248 2.0 2.0 0.00 0.00 0.00
20260831183219 0 0.0 0.0 0.00 0.00 0.00
20260831183021 0 0.0 0.0 0.00 0.00 0.00